Theta_e
345 345 344 343 342 341 338 338 338 335 336 338 336 336 334 331 333 335 336 338 338 338 339 335 333 334 331 329 330 329 330 329 328 324 321 323 325 328 329 331 333 334 335 335 336 336 336 336 336 336 334 334 334 336 336 335 335 334 332 330 328 325
346 345 345 344 343 343 339 338 340 339 338 339 338 338 338 336 336 336 337 338 339 340 340 338 338 338 335 333 331 329 330 329 327 324 322 324 327 329 330 331 333 334 335 336 337 337 338 337 336 335 335 335 336 337 336 335 334 333 332 330 327 325
346 346 345 345 344 343 342 340 341 341 340 340 339 339 339 339 339 339 338 338 340 340 340 339 339 339 338 338 333 329 330 329 326 323 323 326 328 330 331 331 333 335 337 338 339 340 340 339 337 336 336 337 338 337 336 335 334 332 331 329 327 325
346 345 345 345 345 344 343 341 341 341 341 341 340 340 340 340 339 340 339 338 340 340 339 339 339 339 339 339 335 330 329 328 327 323 324 329 331 332 333 333 333 335 338 338 338 340 341 340 339 338 338 338 338 337 336 335 333 331 330 328 327 325
345 345 345 345 345 344 343 342 342 342 342 341 340 341 340 340 340 339 340 339 339 340 340 339 339 338 338 338 337 334 332 332 332 329 328 334 336 335 335 336 335 335 337 337 337 338 339 339 339 338 337 337 337 337 336 334 333 331 329 327 326 325
346 346 345 345 345 344 343 343 342 342 342 342 341 341 340 340 340 340 340 339 340 340 340 339 338 338 338 338 338 337 335 335 337 335 334 336 337 337 337 337 336 336 336 336 337 337 337 338 338 338 337 337 336 337 336 334 333 331 329 327 326 325
346 346 345 344 345 344 344 343 343 342 342 342 341 341 341 340 340 341 340 340 340 340 339 338 338 338 338 338 338 337 336 336 337 336 336 336 336 337 336 336 336 336 335 336 337 337 337 337 338 338 337 337 336 336 335 334 333 331 329 327 325 325
346 345 345 345 344 344 344 344 343 343 342 342 342 341 341 341 341 341 341 340 340 340 339 338 339 339 338 337 337 337 336 336 336 336 335 336 336 336 336 336 336 336 335 335 336 337 337 337 337 338 337 337 336 336 335 333 332 330 328 326 325 324
346 345 345 345 344 344 344 344 343 343 342 342 342 341 341 341 341 341 341 340 340 339 338 338 339 339 339 337 337 337 336 335 335 335 336 336 336 336 336 336 335 335 335 335 336 336 337 337 337 337 337 337 336 335 334 332 331 328 327 326 326 324
345 345 345 345 345 344 343 343 343 343 342 342 342 341 341 341 341 341 340 340 340 339 338 337 338 339 339 338 337 337 336 335 335 335 335 336 336 336 336 336 335 335 335 335 336 336 337 337 337 337 337 336 335 334 333 332 330 328 327 327 326 324
345 344 345 344 344 343 343 343 343 343 342 342 342 341 341 341 340 340 340 340 339 339 338 337 338 339 339 339 337 337 337 335 335 334 334 335 336 336 336 335 335 335 335 335 335 336 336 336 336 336 336 335 335 334 333 332 329 328 328 327 326 324
345 345 344 344 343 343 343 343 343 342 342 342 342 341 341 340 340 340 340 341 340 339 338 337 338 339 339 339 338 337 337 336 335 334 334 335 336 336 336 335 336 336 335 335 335 336 336 336 336 336 336 335 334 334 333 331 329 328 328 327 326 324
345 345 345 344 343 343 342 342 342 342 341 342 342 341 341 340 340 340 340 341 340 340 339 338 338 339 339 339 338 337 337 335 334 334 333 334 335 336 335 336 337 336 335 335 336 336 336 336 336 335 335 335 334 334 333 331 329 328 327 327 326 326
345 345 344 343 343 342 342 342 342 342 341 341 341 341 340 340 339 339 340 341 340 339 339 338 339 339 338 338 338 338 337 335 333 334 334 333 334 334 335 336 336 335 334 334 335 336 336 336 335 335 335 334 334 334 333 331 330 328 327 327 327 327
345 344 344 343 343 342 342 342 341 341 341 341 341 341 340 340 339 339 339 340 340 339 339 339 339 339 338 338 338 338 337 335 333 333 333 332 333 333 334 335 335 335 334 333 334 335 335 336 335 335 334 334 334 334 333 331 330 329 328 327 327 327
344 344 344 343 342 342 341 341 341 341 340 341 340 340 340 339 339 339 338 339 340 339 339 339 339 339 339 338 338 337 337 337 335 333 332 332 332 333 334 334 334 334 334 333 333 333 334 335 335 334 334 334 334 334 333 332 330 329 328 327 327 327
344 343 343 342 341 341 341 341 341 341 340 341 340 340 340 339 339 339 338 338 339 340 339 339 339 339 339 338 338 338 337 337 336 334 333 332 333 333 334 334 334 334 335 333 332 333 333 333 333 334 334 333 334 334 333 332 330 329 329 328 327 328
343 343 343 342 341 341 341 340 340 340 340 340 340 340 340 339 339 338 338 338 338 339 338 338 338 339 339 339 338 337 337 338 337 336 334 333 333 333 333 334 334 334 335 333 332 333 333 332 332 333 334 334 334 334 333 332 331 329 329 328 328 327
342 342 342 342 341 341 340 340 340 340 340 340 340 339 340 340 339 338 338 338 337 338 338 336 336 337 338 339 338 337 337 338 338 337 336 334 334 334 334 333 333 334 335 334 333 333 334 333 332 333 334 334 334 334 333 332 331 330 329 329 328 327
339 340 340 341 341 340 341 341 340 340 339 339 339 339 339 340 339 338 338 337 337 337 336 335 335 336 337 338 339 337 337 338 338 337 336 336 334 333 334 333 332 333 335 333 333 334 333 333 333 334 333 334 334 333 333 332 331 330 330 329 328 327
336 337 339 340 340 340 340 340 340 340 340 340 340 339 338 339 338 338 337 337 337 337 336 335 335 335 336 337 338 338 337 336 337 337 336 336 335 334 333 333 332 332 333 333 333 334 333 332 333 333 333 333 333 333 333 333 332 331 331 330 329 328
336 336 337 338 340 340 340 340 341 341 341 340 340 339 338 338 338 337 337 337 337 337 336 335 335 335 335 336 337 337 336 335 335 336 336 336 336 335 334 333 332 331 332 333 333 334 332 332 332 333 333 333 333 333 333 332 332 332 331 330 329 329
337 336 336 338 339 340 340 341 341 341 341 340 339 339 338 337 337 337 337 337 337 337 336 335 335 335 335 336 336 336 336 336 335 335 336 336 336 336 335 334 333 332 332 332 333 333 332 332 332 332 333 333 333 333 333 332 332 332 332 331 330 329
339 338 338 339 339 340 340 341 340 341 341 340 339 338 338 338 337 337 337 337 337 337 336 336 335 335 335 335 335 336 336 336 335 335 336 337 336 336 335 334 333 332 331 331 333 332 332 333 333 333 333 333 334 334 333 333 333 332 331 331 330 330
340 340 339 340 340 340 340 340 340 341 341 340 339 338 338 338 338 337 337 337 337 337 337 336 335 335 335 335 336 336 336 336 336 336 336 336 337 337 336 335 334 333 331 331 333 332 332 333 334 333 333 333 333 332 332 333 335 334 332 331 331 330
340 340 340 340 340 340 340 340 340 341 341 340 340 339 339 338 338 337 337 337 337 337 337 336 336 335 335 335 336 336 337 337 336 336 336 336 337 336 336 336 334 333 332 331 332 332 332 333 333 333 333 334 334 333 333 334 334 335 333 332 331 331
339 340 340 340 340 340 340 340 341 341 341 340 340 340 339 339 338 338 337 337 337 337 337 337 337 336 335 335 336 336 337 337 337 337 337 337 336 336 336 335 334 334 333 332 333 332 332 333 333 333 333 335 336 335 334 334 332 333 334 333 332 332
340 340 340 340 340 340 340 340 340 341 341 341 340 340 340 340 339 339 338 338 338 338 337 337 337 336 335 335 336 337 337 337 337 337 337 337 337 336 336 335 334 334 334 334 333 333 334 334 333 333 333 334 336 335 333 333 333 332 334 334 333 332
339 340 341 341 340 340 340 339 340 340 341 341 340 340 340 340 340 340 339 339 339 339 338 337 337 337 336 335 335 337 337 338 337 337 338 338 337 337 336 336 336 335 335 335 335 334 335 335 334 334 335 335 335 334 333 333 333 333 333 333 334 333
339 340 341 340 340 340 339 339 339 340 340 340 340 341 341 341 340 340 340 340 340 339 339 339 338 337 337 335 335 337 338 338 338 337 338 337 337 337 336 336 336 336 336 337 336 336 336 336 335 335 335 336 336 335 334 334 334 334 334 334 335 334
339 339 340 339 339 339 339 338 339 340 339 339 340 340 341 341 341 341 340 340 340 340 340 340 340 339 338 337 336 337 338 338 338 338 338 337 338 338 337 337 337 337 337 337 337 337 337 337 336 335 335 335 335 334 334 334 334 334 334 335 334 335
338 339 339 339 339 338 338 337 337 338 338 337 339 341 341 341 341 341 340 340 341 341 341 341 341 340 339 338 337 338 338 338 338 339 339 338 338 338 338 338 338 338 338 338 338 338 338 337 337 336 336 335 334 334 334 334 335 334 334 335 335 335
336 337 338 339 338 337 336 335 333 336 335 332 335 340 341 341 341 341 341 341 341 341 341 341 341 341 340 339 338 338 338 338 337 339 339 338 338 338 338 338 338 338 338 338 338 338 338 338 337 336 336 336 335 335 335 335 335 335 335 335 335 335
335 336 337 337 338 336 335 334 332 332 330 325 331 338 340 340 341 341 341 341 342 341 342 342 341 341 341 340 339 338 339 338 338 339 340 340 339 339 338 338 338 338 338 338 338 338 338 338 337 336 336 336 336 336 336 336 336 336 336 335 335 336
334 335 336 336 337 337 337 337 336 334 328 326 331 337 340 341 341 342 342 342 342 342 342 342 342 342 341 341 340 339 339 339 339 339 340 340 340 339 339 339 338 338 339 338 338 338 338 337 337 337 336 336 336 336 336 336 336 336 336 336 336 335
332 335 336 336 336 337 337 338 338 338 336 334 334 337 339 340 341 343 342 341 341 341 342 342 342 342 342 342 341 340 340 340 340 340 340 340 341 340 340 340 339 338 339 338 338 338 337 337 338 337 337 336 336 336 336 336 336 336 336 336 336 335
328 332 335 336 336 336 337 338 338 339 339 338 337 337 338 338 339 342 342 340 339 339 341 341 341 342 343 342 342 341 341 340 340 340 340 341 341 341 341 341 340 339 339 339 338 338 338 337 337 337 337 336 336 336 337 337 336 337 337 337 336 336
Wind_Speed
25 26 24 22 22 21 24 24 23 24 24 22 22 21 21 21 21 22 22 21 20 19 18 19 20 18 18 19 18 18 16 15 13 11 11 12 15 16 16 15 14 15 15 14 14 14 12 11 9 9 9 9 9 8 8 9 10 10 10 10 11 12
26 27 26 23 22 22 23 24 22 22 22 21 21 21 20 19 19 20 21 20 19 18 16 17 17 16 16 17 18 18 16 15 13 12 12 13 16 16 16 15 15 15 15 15 14 13 12 10 9 8 9 9 9 7 8 10 10 9 10 10 12 13
27 27 27 24 23 23 22 23 22 21 21 21 21 21 20 20 19 19 20 19 18 17 16 16 16 15 15 14 16 18 16 15 14 13 13 15 16 16 16 15 15 16 15 14 13 13 12 10 9 8 8 8 8 7 8 10 9 9 10 10 12 13
27 27 26 24 23 24 23 23 23 22 21 21 22 21 21 21 20 19 19 18 17 17 16 15 16 15 15 14 15 17 17 15 14 13 14 16 16 16 15 15 16 15 13 11 10 11 11 10 9 7 7 8 7 8 8 9 8 9 10 11 12 12
28 29 28 25 22 22 22 23 23 22 22 22 22 21 21 21 20 20 20 18 17 16 16 15 16 16 15 15 15 16 16 15 14 14 15 15 15 15 14 14 14 11 9 9 8 10 10 10 9 7 7 7 8 8 8 8 8 9 9 11 12 12
28 29 30 26 22 21 23 24 22 23 23 22 22 21 21 21 20 20 20 19 18 17 16 15 17 16 15 16 15 15 15 14 14 15 15 14 15 15 14 13 12 9 8 9 9 9 9 9 8 8 7 7 7 8 8 8 8 9 9 10 11 11
27 28 29 25 22 22 24 24 22 22 22 22 22 22 21 21 20 21 21 20 19 18 17 16 17 17 16 15 16 16 15 15 15 15 15 14 15 14 13 12 11 9 9 9 10 9 9 9 8 8 8 7 7 8 8 7 8 8 9 10 10 11
25 26 27 26 25 24 24 23 22 22 23 23 22 22 22 21 21 21 21 21 20 20 19 17 17 18 17 15 15 15 15 15 15 15 15 14 15 14 12 11 11 10 10 10 10 10 9 9 8 8 8 7 7 8 7 7 7 8 8 10 10 11
25 25 26 26 25 25 25 24 22 22 22 22 22 22 21 20 21 21 22 21 21 20 20 19 18 18 17 16 16 15 15 15 15 14 14 14 14 14 12 12 11 11 11 10 10 10 10 9 8 8 8 7 7 7 8 7 7 7 8 9 10 11
26 26 27 26 25 26 26 24 22 22 22 22 22 21 20 20 20 20 21 22 21 20 19 19 19 18 17 17 16 15 14 15 15 14 14 14 14 13 12 12 12 12 12 11 10 10 10 10 9 8 8 8 7 7 7 7 7 7 8 9 10 11
26 26 27 26 25 25 24 23 22 21 21 21 21 21 20 20 20 20 20 21 21 20 19 18 19 19 18 18 17 16 15 15 16 15 15 14 13 13 12 13 12 12 12 11 11 10 10 10 9 9 9 8 8 7 7 6 7 8 7 8 9 10
25 26 27 25 24 23 21 21 22 21 20 20 20 20 20 19 19 19 19 20 21 20 19 17 18 19 18 18 18 17 17 17 16 16 16 15 13 13 13 12 12 12 12 12 11 11 10 10 9 9 9 8 8 7 7 7 7 8 7 8 9 9
27 26 25 23 22 21 19 20 21 21 19 19 20 20 19 19 19 18 19 20 20 19 19 17 18 19 18 17 17 17 17 17 17 16 16 16 14 13 13 13 13 13 12 12 13 12 10 10 9 9 9 8 8 7 7 7 7 8 8 8 8 8
27 25 24 22 21 19 18 19 20 19 18 17 18 19 18 17 18 18 18 19 19 19 19 17 18 18 18 17 17 17 17 17 17 17 17 17 16 14 13 14 14 13 13 13 13 13 11 10 10 9 9 9 8 8 7 7 8 8 8 7 7 8
26 24 24 23 21 20 19 18 19 18 17 16 16 17 17 16 17 17 17 18 19 19 18 18 18 18 18 17 17 16 17 16 16 17 17 17 17 16 15 15 15 14 13 13 13 13 12 11 10 9 9 9 9 9 7 7 8 8 8 7 7 7
26 25 25 24 22 20 19 18 18 17 16 16 16 16 16 16 16 16 16 17 19 19 19 18 18 18 18 17 17 16 17 16 16 16 17 17 18 18 16 15 15 14 14 14 14 14 13 12 11 10 9 9 9 9 8 8 8 8 8 7 7 7
25 27 24 23 22 18 16 16 17 16 15 15 15 16 16 16 15 15 16 16 18 19 19 19 18 18 17 17 17 16 17 17 17 16 16 17 18 19 18 16 15 15 14 14 14 14 14 12 12 11 10 10 10 9 8 8 8 8 8 7 7 7
21 27 25 24 24 20 17 17 17 16 15 14 15 16 15 15 16 16 16 15 16 18 18 19 19 18 18 17 17 17 17 17 17 16 16 17 17 17 18 17 16 16 14 14 13 14 13 12 12 11 10 10 11 10 9 9 9 8 8 7 7 7
21 23 25 26 25 23 21 20 19 17 16 15 15 16 15 15 16 16 16 16 16 17 18 19 19 19 18 17 17 17 17 17 17 17 18 17 15 16 17 18 19 17 15 14 13 13 13 12 12 11 11 11 11 11 10 9 9 9 8 8 8 8
26 22 22 25 25 25 24 22 21 19 19 18 18 18 17 15 16 17 17 17 17 17 18 18 19 19 20 19 19 18 18 17 17 18 19 19 17 16 16 19 20 19 16 15 13 13 14 13 12 11 10 10 10 10 10 9 9 9 9 8 8 8
29 25 24 24 25 26 26 24 23 22 21 21 20 20 18 17 17 18 17 18 18 18 18 18 18 19 20 20 20 20 19 18 18 19 20 20 19 18 17 18 20 20 18 16 15 15 15 14 13 12 10 10 9 8 9 9 10 10 9 9 9 9
28 30 30 28 27 28 26 24 24 23 22 21 21 21 20 20 20 19 18 18 18 19 19 18 19 19 20 21 21 20 19 19 20 20 20 20 20 19 19 19 19 19 20 18 16 16 17 16 14 13 11 10 8 7 8 10 11 12 11 10 10 11
28 32 33 32 32 29 25 24 23 22 22 21 19 19 19 20 20 20 19 19 19 19 19 19 19 20 20 21 22 21 20 20 20 21 20 19 20 20 20 20 20 19 19 18 16 17 20 17 14 14 12 9 7 7 8 11 14 14 13 13 12 13
27 30 32 34 35 30 24 24 23 22 21 19 17 18 18 18 19 20 20 19 19 19 20 20 20 20 21 21 22 22 21 20 20 21 21 20 21 21 21 22 22 20 19 19 17 18 20 17 14 14 11 7 7 7 6 9 14 15 15 15 15 15
27 28 27 29 32 29 25 25 24 21 20 18 17 18 18 19 20 21 21 21 21 20 20 21 21 21 21 21 22 23 22 21 20 21 21 21 21 21 21 22 24 23 21 20 18 18 19 18 16 16 13 8 7 6 4 6 10 11 13 16 16 17
28 26 25 25 27 28 27 27 26 23 23 22 20 21 20 21 22 22 23 22 22 22 22 22 22 23 22 21 22 23 23 22 21 21 21 21 20 20 20 21 23 24 23 20 18 17 18 19 19 18 16 11 5 4 3 6 6 6 10 13 15 16
26 26 26 25 26 28 30 30 29 26 26 25 23 22 22 22 22 22 23 22 22 23 23 23 24 24 24 23 22 23 24 23 22 22 22 21 21 20 20 21 22 23 23 21 19 18 19 20 20 19 19 15 9 6 4 6 5 3 6 9 12 14
26 26 27 26 25 28 31 31 30 28 27 25 23 22 22 22 22 22 22 22 22 23 23 25 25 25 25 25 24 24 25 25 23 22 22 22 22 21 20 20 21 21 21 21 21 18 18 20 20 18 19 17 13 10 8 7 6 5 3 4 8 12
27 26 25 25 25 27 31 31 30 28 26 24 22 21 21 21 22 23 22 21 21 21 22 24 26 26 26 26 26 25 26 26 25 23 23 23 22 22 21 21 22 22 22 21 21 19 18 20 19 17 18 18 15 12 10 9 9 8 7 5 4 7
26 25 24 24 24 26 29 29 28 26 25 24 22 20 19 20 22 23 23 22 21 21 21 22 25 27 28 27 26 26 27 27 26 25 24 24 23 23 22 22 23 24 23 21 21 20 19 18 18 17 17 17 16 13 11 10 10 9 9 8 4 5
23 24 24 23 24 27 27 26 25 23 24 24 22 20 20 21 23 23 23 23 22 22 22 23 26 27 28 27 26 27 27 27 27 26 25 24 24 24 23 22 22 23 24 23 21 21 20 18 18 17 17 17 16 15 13 11 10 10 9 8 6 5
21 24 25 25 26 27 26 25 24 22 23 24 22 22 23 24 25 25 24 23 22 23 23 24 25 25 26 27 28 28 28 28 28 27 26 24 24 25 25 23 23 25 25 25 23 22 21 20 19 18 18 17 16 15 14 13 10 9 9 9 8 6
20 22 25 26 27 29 31 31 30 26 25 26 25 26 27 27 26 25 23 22 23 24 24 25 25 24 25 28 29 29 29 29 27 26 26 25 25 25 25 24 24 25 25 25 24 23 22 21 21 19 18 17 16 16 15 14 11 10 10 10 9 8
19 20 24 28 29 32 35 36 36 33 29 26 25 27 27 25 24 24 23 23 25 26 25 25 26 25 26 28 29 29 28 28 26 26 26 27 27 26 25 25 24 25 25 24 24 24 23 22 22 21 19 18 17 16 15 14 13 11 11 11 10 10
18 20 23 27 30 32 31 32 34 35 35 31 28 26 24 22 21 22 25 25 26 26 24 24 24 25 26 26 27 28 27 27 26 26 28 28 28 28 26 26 25 25 26 25 24 25 23 22 22 22 21 19 18 17 16 14 13 13 12 12 11 11
15 19 22 26 30 32 31 30 29 31 34 35 32 29 27 26 24 24 27 30 29 26 24 25 23 22 24 24 26 27 26 26 26 26 30 31 30 30 28 27 26 25 25 25 24 25 24 22 22 22 22 21 19 17 16 15 14 13 13 12 11 11
13 17 21 24 28 31 31 31 30 30 31 31 32 31 29 30 30 27 28 32 33 27 25 27 23 20 22 24 26 27 26 26 26 27 29 30 30 31 29 27 28 27 26 25 24 25 25 22 22 22 22 22 21 18 16 15 15 14 13 13 13 12
Wind_Direction
179 178 173 174 178 179 184 182 179 179 176 177 178 176 176 174 173 171 170 170 170 170 171 178 178 179 179 172 172 176 176 173 169 163 156 153 150 148 143 140 139 133 126 126 123 118 116 117 117 112 111 113 106 96 91 84 80 79 86 93 93 105
180 180 174 172 176 180 185 182 178 180 177 178 179 177 176 173 172 171 170 171 171 171 173 177 176 179 178 173 175 176 175 175 170 164 157 153 151 148 144 141 138 132 127 127 124 120 116 113 110 107 110 107 98 96 94 85 83 84 89 96 100 111
181 179 176 172 174 179 181 180 178 179 178 179 180 178 177 176 175 172 171 173 173 175 175 176 176 177 174 173 178 176 175 175 169 163 159 155 153 151 147 142 138 134 129 127 129 128 123 119 115 111 108 102 99 102 95 88 87 88 91 100 108 115
182 178 178 173 173 176 178 180 179 178 177 178 180 181 181 181 181 177 174 175 176 176 175 175 175 175 174 175 178 175 175 173 167 164 159 154 152 154 150 143 141 136 130 131 135 130 125 127 128 124 114 106 108 105 95 91 90 90 95 104 114 118
182 177 179 177 173 174 177 181 181 179 179 180 182 183 184 184 184 182 180 180 179 177 175 175 174 177 180 179 175 171 172 168 163 161 156 152 152 154 151 148 147 143 140 139 134 127 124 126 127 123 115 113 114 107 99 96 95 97 100 108 120 122
182 177 179 178 173 174 179 183 183 181 182 183 184 185 186 186 186 184 184 184 183 178 178 176 175 180 184 183 179 174 173 170 166 163 161 160 159 159 158 158 159 159 153 142 133 127 124 122 123 122 118 118 116 110 103 99 100 104 107 114 125 127
183 180 179 177 175 177 181 185 186 185 185 187 187 188 189 188 188 186 186 187 185 183 182 179 177 181 184 184 184 182 179 177 174 173 173 171 167 167 167 166 165 163 156 144 137 132 127 125 125 125 122 122 118 110 105 102 104 106 113 120 127 130
183 184 182 179 178 180 181 185 187 188 190 190 189 190 191 190 188 187 188 188 187 188 187 184 180 181 183 184 186 186 185 182 182 182 181 178 173 172 171 170 167 162 159 151 143 138 133 128 127 127 123 124 120 113 109 108 109 109 117 126 130 133
183 186 186 183 183 183 183 185 187 190 194 193 192 193 192 190 190 189 189 189 189 190 190 188 185 183 183 185 187 188 189 190 189 188 186 183 178 175 173 172 170 164 161 155 150 146 139 134 132 130 128 129 124 116 115 114 113 112 120 129 133 136
183 186 189 189 188 186 183 184 186 192 196 195 194 195 193 192 192 192 191 191 191 191 191 190 189 187 185 185 187 188 190 194 194 193 191 189 184 179 177 176 172 166 163 160 156 153 147 145 142 135 132 134 130 122 121 122 119 117 123 130 135 139
186 188 191 191 190 191 187 185 186 191 197 197 197 196 195 195 194 194 194 192 193 192 191 191 191 190 188 186 188 189 192 195 195 196 197 194 189 184 182 180 176 168 165 164 161 160 158 152 147 141 138 140 140 135 132 130 124 123 127 133 138 142
188 189 190 191 191 194 193 190 188 190 196 197 198 198 197 198 196 196 194 192 193 192 190 190 191 192 189 186 188 191 193 196 197 198 200 197 190 185 185 183 175 167 165 165 163 165 164 157 153 149 144 145 147 146 142 134 131 132 134 135 138 141
189 188 186 190 193 196 195 195 194 192 194 195 197 201 202 200 197 197 194 192 192 191 191 190 189 191 188 185 188 192 193 196 197 199 201 199 193 186 184 184 175 168 167 168 168 167 168 163 159 154 150 152 154 153 147 139 137 139 138 138 142 144
189 189 185 187 192 196 196 197 198 194 193 193 196 202 206 204 200 198 195 192 192 191 190 189 188 188 189 187 187 191 194 196 200 200 199 199 197 192 187 185 179 173 173 175 173 171 172 169 164 160 158 161 162 157 151 142 140 143 143 144 147 147
185 189 188 188 190 193 195 196 197 194 192 193 194 199 207 209 205 201 198 194 193 192 190 189 188 187 189 189 187 190 194 196 199 200 200 199 199 198 193 188 185 180 178 181 179 175 176 172 169 169 167 168 165 160 155 147 145 147 148 152 153 151
181 186 186 187 187 190 192 193 195 191 190 194 194 197 203 208 210 205 201 198 194 193 192 190 188 186 187 190 190 191 194 195 194 196 200 200 200 200 195 190 189 186 182 183 181 179 180 176 173 174 173 173 168 165 160 153 155 155 156 162 160 157
181 183 184 186 186 187 189 189 191 189 187 190 195 200 203 206 209 209 206 203 197 194 193 193 189 187 187 190 193 192 194 194 191 192 195 197 199 200 196 190 189 189 186 186 184 180 181 179 177 178 181 178 170 170 167 161 162 163 168 173 168 168
191 187 185 188 190 190 192 191 189 189 190 190 194 200 205 207 208 209 209 206 201 197 196 195 193 190 189 192 194 194 195 194 192 192 193 194 198 198 196 192 192 192 189 190 187 181 181 179 176 179 185 181 174 176 174 168 169 172 178 182 177 179
202 195 192 191 193 193 194 195 188 186 190 192 196 200 204 208 208 207 208 208 204 201 198 197 196 194 193 194 194 195 196 194 193 196 196 196 195 194 192 193 196 194 190 194 192 184 180 175 171 176 183 181 179 182 181 175 176 182 188 190 189 191
204 208 209 199 197 194 193 196 191 186 189 193 197 200 204 206 208 210 208 207 205 203 201 198 197 198 197 196 194 195 197 196 195 197 200 200 198 195 192 194 198 196 191 194 195 188 180 172 163 165 175 182 186 187 188 186 187 192 195 196 198 200
203 210 220 212 202 197 195 196 195 195 193 191 189 192 202 206 208 213 211 209 207 205 203 199 197 198 199 199 197 195 197 200 200 200 203 203 203 199 196 196 199 200 196 194 195 189 180 171 160 157 165 176 186 193 197 199 200 202 203 203 204 206
203 203 213 218 210 203 202 200 199 200 196 191 186 185 194 202 206 210 210 210 209 207 205 201 198 198 199 200 199 197 198 202 205 205 205 204 204 201 198 197 197 199 199 197 195 187 180 173 166 167 168 168 179 194 204 213 215 213 210 209 211 213
207 205 207 213 213 207 206 206 205 206 199 190 185 185 191 199 203 206 208 210 209 208 206 205 202 199 200 200 200 201 201 203 205 206 204 202 203 201 199 199 198 197 196 194 194 188 182 178 175 175 173 175 182 190 204 216 221 223 219 215 214 217
208 209 205 206 210 208 204 206 210 210 201 187 179 185 192 196 202 206 210 211 209 207 205 208 208 203 201 200 201 202 202 203 204 204 204 202 202 200 199 200 200 200 195 190 189 187 186 188 189 181 179 190 189 196 217 207 209 217 218 218 219 219
204 209 208 205 207 209 205 204 208 204 195 185 178 182 190 198 205 210 212 210 207 204 203 207 210 208 205 200 199 201 200 201 201 201 203 204 202 201 201 202 203 203 201 195 187 181 186 197 202 194 193 199 186 207 234 185 187 197 201 212 220 221
206 208 213 208 204 206 206 203 202 197 190 186 182 184 193 202 207 209 210 208 206 204 202 205 209 210 209 204 200 200 199 198 198 199 202 204 203 202 203 204 205 205 205 203 190 178 183 197 204 206 210 220 227 256 229 172 176 175 184 204 214 215
209 210 212 209 202 204 208 207 205 201 197 192 188 190 197 201 203 205 206 205 205 204 203 205 208 211 211 208 204 201 200 199 198 199 200 203 204 202 203 205 206 206 205 204 195 183 184 191 201 209 215 224 239 254 218 183 201 194 180 199 209 213
210 213 212 207 202 203 208 210 209 206 203 199 196 194 194 197 200 201 201 203 205 205 204 205 209 211 212 210 206 204 202 200 199 199 199 203 205 202 202 203 204 204 205 204 199 192 187 187 194 203 208 215 225 226 215 211 233 244 234 208 198 208
212 215 214 207 202 203 209 212 210 208 207 205 202 196 189 192 200 201 198 200 204 205 202 204 209 212 213 211 208 207 205 202 201 201 201 203 205 203 202 202 202 202 203 203 201 199 195 190 193 196 196 204 213 216 214 220 232 241 251 247 189 194
215 215 214 209 202 202 210 215 210 206 207 207 204 200 191 191 199 202 199 198 202 203 201 203 209 213 214 212 210 209 207 204 201 201 202 204 205 203 202 203 204 204 205 205 203 204 203 196 197 199 195 197 202 206 209 214 221 227 239 247 239 208
218 214 213 210 204 202 210 219 217 207 204 205 204 204 200 196 199 200 199 199 201 202 203 204 207 211 212 211 210 210 208 206 203 202 203 205 206 205 203 203 205 206 207 208 207 206 206 203 202 203 202 202 202 203 206 209 215 218 227 237 242 235
223 216 212 209 206 204 207 217 222 216 209 206 207 207 205 202 201 202 201 200 199 201 206 208 207 207 208 208 209 210 210 208 204 204 204 205 207 206 204 203 205 207 207 208 209 206 205 205 205 206 205 206 207 207 209 213 217 217 223 232 238 252
228 223 216 214 212 210 212 216 222 224 217 212 216 215 209 204 202 202 200 196 197 199 204 208 207 204 205 206 208 209 209 209 204 203 204 205 207 208 206 206 208 209 208 209 210 208 207 207 206 208 207 207 209 209 210 215 219 220 223 230 235 246
231 229 224 222 221 220 222 224 226 227 221 215 221 223 217 209 204 203 200 195 198 199 199 204 206 205 204 205 208 209 209 209 204 201 203 205 207 209 208 208 210 211 211 211 211 210 211 212 212 214 213 211 211 211 213 216 219 221 222 227 232 238
234 229 226 226 225 224 227 229 228 227 223 218 221 227 226 218 209 206 204 199 200 201 199 202 206 206 205 204 206 210 210 211 207 203 204 207 208 208 208 209 212 214 214 213 213 213 214 215 217 218 218 218 217 216 216 218 221 223 224 228 233 237
245 232 227 226 227 225 226 228 228 226 224 220 221 227 230 227 221 215 210 207 207 206 203 204 205 205 207 205 204 207 208 210 209 207 209 211 211 210 209 210 212 214 217 216 214 215 216 217 219 219 220 221 222 222 220 220 223 225 228 231 234 237
260 241 230 225 226 227 227 228 228 227 226 223 223 226 228 229 229 223 216 216 215 212 209 211 210 207 210 209 206 207 208 208 209 209 212 212 212 211 209 210 212 212 215 216 215 217 218 219 220 220 222 223 225 225 222 221 224 227 229 230 234 237